Flag for France Weather past 2 weeks in Nîmes, France

Now
61 °F

Clear.


Feels Like: 61 °F
Forecast: 59 / 70 °F
Wind: 3 mph from Northwest

Location: Nimes / Garons

Current Time: May 4, 2015 at 10:19:21 PM

Latest Report: May 4, 2015 at 10:00 PM


Visibility: N/A

Pressure: 29.80 "Hg

Humidity: 83%

Dew point: 55 °F

Location of NîmesLocation

Historic Weather in Nîmes — Graph

°F

Nîmes temperature yesterday

Maximum temperature yesterday: 72 °F (at 1:30 PM)
Minimum temperature yesterday: 57 °F (at 4:30 AM)
Average temperature yesterday: 63 °F

Past Weeks' High & Low Weather Summary

 TemperatureHumidityPressure
High75 °F (Apr 23, 3:30 PM)100% (Apr 20, 3:30 AM)30.27 "Hg (Apr 20, 3:30 AM)
Low45 °F (Apr 21, 7:00 AM)32% (Apr 29, 12:30 PM)29.53 "Hg (Apr 27, 5:30 AM)
Average60 °F73%29.96 "Hg
* Reported Apr 19 9:00 PM — May 4 9:00 PM, Nîmes, Weather by CustomWeather, © 2015

Note: Actual official high and low records may vary slightly from our data, if they occured in-between our weather recording intervals... More about our weather records

Advertising

Nîmes weather history for previous 24 hours

 ConditionsComfort  
Time TempWeatherWind HumidityBarometerVisibility
9:00 PM
Mon, May 4
64 °FClear.2 mph68%29.77 "HgN/A
8:30 PM66 °FClear.6 mph64%29.77 "HgN/A
8:00 PM68 °FClear.10 mph60%29.80 "HgN/A
7:30 PM66 °FClear.7 mph64%29.80 "HgN/A
7:00 PM66 °FClear.7 mph68%29.80 "HgN/A
6:30 PM68 °FClear.8 mph64%29.80 "HgN/A
6:00 PM68 °FClear.8 mph64%29.83 "HgN/A
5:30 PM70 °FClear.9 mph57%29.83 "HgN/A
5:00 PM70 °FClear.8 mph57%29.83 "HgN/A
4:30 PM72 °FClear.8 mph61%29.83 "HgN/A
4:00 PM70 °FClear.8 mph69%29.83 "HgN/A
3:30 PM72 °FClear.5 mph57%29.83 "HgN/A
3:00 PM70 °FClear.5 mph64%29.86 "HgN/A
2:30 PM72 °FClear.6 mph61%29.86 "HgN/A
2:00 PM72 °FClear.6 mph61%29.86 "HgN/A
1:30 PM70 °FClear.6 mph60%29.86 "HgN/A
1:00 PM72 °FClear.7 mph53%29.86 "HgN/A
12:30 PM72 °FClear.7 mph53%29.86 "HgN/A
12:00 PM70 °FClear.3 mph69%29.89 "HgN/A
11:30 AM68 °FClear.5 mph73%29.89 "HgN/A
11:00 AM66 °FClear.5 mph73%29.89 "HgN/A
10:30 AM64 °FPassing clouds.3 mph83%29.89 "HgN/A
10:00 AM64 °FClear.3 mph83%29.89 "HgN/A
9:30 AM64 °FClear.3 mph83%29.89 "HgN/A
9:00 AM63 °FClear.7 mph88%29.89 "HgN/A
8:30 AM61 °FClear.5 mph88%29.89 "HgN/A
8:00 AM61 °FClear.3 mph88%29.89 "HgN/A
7:30 AM61 °FClear.3 mph88%29.86 "HgN/A
7:00 AM59 °FClear.2 mph94%29.86 "HgN/A
6:30 AM59 °FClear.2 mph94%29.86 "HgN/A
5:30 AM59 °FClear.1 mph94%29.86 "HgN/A
5:00 AM61 °FClear.6 mph88%29.86 "HgN/A
4:30 AM59 °FFog.3 mph94%29.89 "Hg2 mi
4:00 AM59 °FLight rain. Fog.3 mph94%29.89 "Hg2 mi
3:30 AM59 °FFog.2 mph100%29.89 "Hg2 mi
3:00 AM59 °FFog.3 mph94%29.89 "Hg2 mi
2:30 AM61 °FClear.1 mph94%29.89 "HgN/A
2:00 AM61 °FClear.3 mph94%29.89 "Hg4 mi
1:30 AM61 °FClear.1 mph88%29.89 "HgN/A
1:00 AM61 °FClear.3 mph94%29.92 "HgN/A
12:30 AM61 °FClear.2 mph94%29.89 "HgN/A
12:00 AM61 °FLow clouds.No wind94%29.89 "HgN/A
10:30 PM
Sun, May 3
63 °FClear.No wind88%29.92 "HgN/A
10:00 PM63 °FClear.2 mph88%29.89 "HgN/A
Weather by CustomWeather, © 2015

See weather overviewHow to use our weather pages